CW0454 Weather Reports


Display with metric or nautical units.
time (UTC)temp
F
wind
direction
speed
MPH
gust
MPH
rain 1hr
in
rain 24hr
in
rain mn
in
humidity
%
barometer
mb
20260903091408 74 107 0.0 0.0 0.00 0.19 0.00 99 1015.7
20260903090404 74 107 0.0 0.0 0.00 0.19 0.00 98 1016.1
20260903085447 74 107 0.0 0.0 0.00 0.19 0.00 98 1015.7
20260903084405 74 107 0.0 0.0 0.00 0.19 0.00 98 1015.8
20260903083405 74 107 0.0 0.0 0.00 0.19 0.00 98 1016.0
20260903082403 74 107 0.0 0.0 0.00 0.19 0.00 98 1016.1
20260903081407 74 107 0.0 0.0 0.00 0.19 0.00 98 1016.0
20260903080404 74 107 0.0 0.0 0.00 0.19 0.00 98 1015.8
20260903075425 74 107 0.0 0.0 0.00 0.19 0.00 98 1015.7
20260903073405 73 107 0.0 0.0 0.00 0.19 0.00 98 1016.0
20260903072427 73 107 0.0 1.0 0.00 0.19 0.00 98 1016.1
20260903070424 73 107 0.0 3.0 0.00 0.19 0.00 98 1015.7
20260903065448 73 108 0.0 2.0 0.00 0.19 0.00 98 1015.5
20260903064406 73 108 0.0 3.0 0.00 0.19 0.00 98 1015.3
20260903063405 73 107 1.0 2.0 0.00 0.19 0.00 98 1015.3
20260903062402 73 107 0.0 0.0 0.00 0.19 0.00 98 1015.5
20260903061404 72 107 0.0 0.0 0.00 0.19 0.00 98 1015.6
20260903060425 72 107 0.0 2.0 0.00 0.19 0.00 98 1015.5
20260903055405 72 107 0.0 4.0 0.00 0.19 0.00 98 1015.5
20260903054402 72 105 0.0 2.0 0.00 0.19 0.00 98 1015.6
20260903053401 72 115 0.0 1.0 0.00 0.19 0.00 98 1015.9
20260903052402 72 115 1.0 1.0 0.00 0.19 0.00 98 1015.9
20260903051402 71 115 0.0 1.0 0.00 0.19 0.00 98 1016.0
20260903050402 71 115 0.0 1.0 0.00 0.19 0.00 98 1016.0
20260903045421 72 115 0.0 3.0 0.00 0.19 0.00 98 1016.0
20260903044400 72 115 0.0 0.0 0.00 0.19 0.00 98 1016.1
20260903043402 72 115 0.0 0.0 0.00 0.19 0.00 98 1016.1
20260903042401 72 115 0.0 0.0 0.00 0.19 0.00 98 1016.2
20260903040403 72 115 0.0 0.0 0.00 0.38 0.19 98 1016.6
20260903035402 72 115 0.0 0.0 0.00 0.19 0.19 98 1016.5
20260903034423 72 115 0.0 0.0 0.00 0.19 0.19 98 1016.7
20260903033401 72 115 0.0 0.0 0.00 0.19 0.19 98 1016.5
20260903032401 72 115 0.0 0.0 0.00 0.19 0.19 97 1016.4
20260903031402 71 115 0.0 0.0 0.00 0.19 0.19 97 1016.4
20260903030400 71 115 0.0 0.0 0.00 0.19 0.19 97 1016.4
20260903025405 71 115 0.0 0.0 0.00 0.19 0.19 97 1016.5
20260903024429 71 115 0.0 0.0 0.00 0.19 0.19 97 1016.5
20260903023412 71 115 0.0 0.0 0.00 0.19 0.19 97 1016.9
20260903022407 71 115 0.0 0.0 0.00 0.19 0.19 97 1017.0
20260903021404 71 115 0.0 0.0 0.00 0.19 0.19 97 1016.7
20260903020406 71 115 0.0 0.0 0.00 0.19 0.19 97 1016.5
20260903015401 71 115 0.0 0.0 0.00 0.19 0.19 97 1016.7
20260903014401 71 115 0.0 0.0 0.00 0.19 0.19 97 1016.6
20260903013401 71 115 0.0 0.0 0.00 0.19 0.19 97 1016.6
20260903012423 71 115 0.0 0.0 0.00 0.19 0.19 97 1016.6
20260903011401 71 115 0.0 0.0 0.00 0.19 0.19 97 1016.3
20260903010422 71 115 0.0 0.0 0.00 0.19 0.19 96 1016.2
20260903005401 72 115 0.0 0.0 0.00 0.19 0.19 96 1016.1
20260903004400 72 115 0.0 0.0 0.00 0.19 0.19 96 1016.5
20260903003401 72 115 0.0 0.0 0.00 0.19 0.19 96 1016.4
20260903002405 72 115 0.0 1.0 0.00 0.19 0.19 96 1016.2
20260903001401 73 115 0.0 1.0 0.00 0.19 0.19 96 1016.2
20260903000402 73 115 0.0 1.0 0.00 0.19 0.19 96 1016.4
20260902235445 73 115 0.0 1.0 0.00 0.19 0.19 96 1016.4
20260902234404 73 115 0.0 0.0 0.00 0.19 0.19 96 1016.5
20260902233402 73 115 0.0 0.0 0.00 0.19 0.19 96 1016.4
20260902232401 74 115 0.0 0.0 0.00 0.19 0.19 95 1016.4
20260902231401 74 115 0.0 1.0 0.00 0.19 0.19 95 1016.4
20260902230403 74 115 0.0 1.0 0.00 0.19 0.19 95 1016.7
20260902225401 74 115 0.0 0.0 0.00 0.19 0.19 95 1016.7
20260902224406 75 115 0.0 1.0 0.00 0.19 0.19 95 1016.4
20260902223423 74 115 0.0 1.0 0.00 0.19 0.19 95 1016.4
20260902222406 75 115 0.0 1.0 0.00 0.19 0.19 95 1016.3
20260902221401 75 115 0.0 2.0 0.00 0.19 0.19 96 1016.4
20260902220402 74 115 0.0 1.0 0.00 0.19 0.19 96 1016.5
20260902215402 75 115 0.0 1.0 0.00 0.19 0.19 96 1016.7
20260902214403 74 128 0.0 1.0 0.00 0.19 0.19 96 1016.8
20260902213403 74 123 0.0 0.0 0.00 0.19 0.19 96 1017.2
20260902212403 74 123 0.0 0.0 0.00 0.19 0.19 96 1017.0
20260902211402 74 123 0.0 0.0 0.00 0.19 0.19 96 1017.1
20260902210405 74 123 0.0 0.0 0.00 0.19 0.19 96 1017.0
20260902205401 74 123 0.0 1.0 0.00 0.19 0.19 96 1017.0
20260902204403 74 123 0.0 2.0 0.00 0.19 0.19 96 1016.8
20260902203425 74 123 0.0 3.0 0.00 0.19 0.19 96 1016.8
20260902202445 74 125 1.0 2.0 0.00 0.19 0.19 96 1016.8
20260902201403 74 124 1.0 4.0 0.00 0.19 0.19 96 1017.0
20260902200423 74 109 1.0 6.0 0.00 0.19 0.19 96 1016.8
20260902194422 74 113 2.0 6.0 0.00 0.19 0.19 96 1016.4
20260902193403 74 44 2.0 4.0 0.00 0.19 0.19 96 1016.5
20260902192408 73 43 1.0 3.0 0.00 0.19 0.19 96 1016.5
20260902191401 72 43 1.0 2.0 0.00 0.19 0.19 96 1016.3
20260902190422 72 43 0.0 2.0 0.00 0.19 0.19 95 1017.0
20260902185423 72 43 0.0 1.0 0.00 0.19 0.19 95 1017.1
20260902184401 72 43 0.0 2.0 0.00 0.19 0.19 95 1017.0
20260902183401 72 43 0.0 3.0 0.00 0.19 0.19 95 1017.1
20260902182402 72 34 1.0 4.0 0.00 0.19 0.19 94 1017.0
20260902181402 72 310 2.0 3.0 0.00 0.19 0.19 94 1017.6
20260902180401 72 248 0.0 0.0 0.00 0.19 0.19 93 1019.0
20260902175401 72 248 0.0 0.0 0.19 0.19 0.19 93 1019.5
20260902174402 72 247 0.0 3.0 0.18 0.18 0.18 92 1019.3
20260902173401 73 248 0.0 9.0 0.14 0.14 0.14 90 1019.9
20260902172401 77 251 5.0 22.0 0.00 0.00 0.00 85 1021.0
20260902171423 81 271 4.0 13.0 0.00 0.00 0.00 84 1020.5
20260902170401 82 42 2.0 7.0 0.00 0.00 0.00 84 1018.7
20260902165402 81 37 1.0 5.0 0.00 0.00 0.00 83 1018.5
20260902164402 81 16 1.0 4.0 0.00 0.00 0.00 85 1018.0
20260902163401 80 15 1.0 5.0 0.00 0.00 0.00 85 1018.0
20260902162402 80 28 2.0 6.0 0.00 0.00 0.00 85 1018.2
20260902161401 80 46 2.0 10.0 0.00 0.00 0.00 86 1018.0
20260902160402 80 20 6.0 8.0 0.00 0.00 0.00 85 1018.0
20260902155402 80 33 3.0 9.0 0.00 0.00 0.00 86 1017.7
20260902154401 79 153 2.0 6.0 0.00 0.00 0.00 86 1017.6
20260902153402 79 99 2.0 8.0 0.00 0.00 0.00 87 1017.8
20260902152402 78 34 4.0 8.0 0.00 0.00 0.00 87 1017.8
20260902151423 78 25 4.0 10.0 0.00 0.00 0.00 88 1017.8
20260902150403 77 46 2.0 6.0 0.00 0.00 0.00 89 1017.9
20260902145402 77 53 3.0 5.0 0.00 0.00 0.00 89 1018.1
20260902144401 77 18 2.0 6.0 0.00 0.00 0.00 89 1018.4
20260902143403 77 41 2.0 6.0 0.00 0.00 0.00 89 1018.1
20260902142444 77 49 0.0 5.0 0.00 0.00 0.00 89 1018.2
20260902141402 77 68 0.0 5.0 0.00 0.00 0.00 89 1018.2
20260902140423 77 16 1.0 6.0 0.00 0.00 0.00 90 1017.8
20260902135423 77 36 2.0 7.0 0.00 0.00 0.00 91 1017.6
20260902134402 77 66 3.0 6.0 0.00 0.00 0.00 91 1017.5
20260902133402 76 16 4.0 8.0 0.00 0.00 0.00 91 1017.5
20260902132402 77 46 2.0 12.0 0.00 0.00 0.00 91 1017.7
20260902131402 77 10 1.0 8.0 0.00 0.00 0.00 92 1017.5
20260902130402 76 35 4.0 9.0 0.00 0.00 0.00 92 1017.4
20260902125402 76 35 4.0 7.0 0.00 0.00 0.00 92 1017.4
20260902124402 76 42 4.0 9.0 0.00 0.00 0.00 92 1017.3
20260902123403 76 24 3.0 6.0 0.00 0.00 0.00 93 1017.3
20260902122402 76 24 3.0 6.0 0.00 0.00 0.00 93 1017.1
20260902121403 76 18 2.0 8.0 0.00 0.00 0.00 94 1017.0
20260902120402 76 35 4.0 7.0 0.00 0.00 0.00 94 1016.9
20260902115402 76 336 3.0 5.0 0.00 0.00 0.00 95 1016.8
20260902114403 75 329 1.0 3.0 0.00 0.00 0.00 96 1016.8
20260902113402 74 329 2.0 4.0 0.00 0.00 0.00 96 1016.7
20260902112408 74 317 1.0 4.0 0.00 0.00 0.00 96 1016.8
20260902111403 72 237 0.0 0.0 0.00 0.00 0.00 96 1016.8
20260902110402 72 237 0.0 0.0 0.00 0.00 0.00 95 1016.9
20260902105403 72 237 0.0 0.0 0.00 0.00 0.00 95 1016.8
20260902104403 72 188 0.0 0.0 0.00 0.00 0.00 95 1016.6
20260902103402 72 188 0.0 0.0 0.00 0.00 0.00 95 1016.7
20260902102403 72 188 0.0 0.0 0.00 0.00 0.00 95 1016.6
20260902101402 72 138 0.0 1.0 0.00 0.00 0.00 95 1016.5
20260902100403 72 66 0.0 0.0 0.00 0.00 0.00 94 1016.4
20260902095402 72 66 0.0 0.0 0.00 0.00 0.00 94 1016.2
20260902094424 72 66 0.0 0.0 0.00 0.00 0.00 94 1016.4
20260902093402 72 66 0.0 0.0 0.00 0.00 0.00 94 1016.6
20260902092402 72 66 0.0 0.0 0.00 0.00 0.00 94 1016.5